Weather History for KRPJ - October, 2012

Change the Weather History Date:

Saturday, October 6, 2012

  Actual Average (KRFD) Record (KRFD)
Temperature  
Mean Temperature 37 °F 55 °F  
Max Temperature 48 °F 67 °F 90 °F (1963)
Min Temperature 27 °F 44 °F 23 °F (1952)
Degree Days  
Heating Degree Days 28 10  
Month to date heating degree days 57  
Since 1 July heating degree days 188  
Cooling Degree Days 0 1  
Month to date cooling degree days 6  
Year to date cooling degree days 817  
Moisture  
Dew Point 27 °F    
Average Humidity 64    
Maximum Humidity 90    
Minimum Humidity 45    
Precipitation  
Precipitation 0.00 in 0.09 in 1.04 in (1949)
Month to date precipitation 0.56  
Year to date precipitation 29.57  
Snow  
Snow 0.00 in 0.00 in T in (1964)
Month to date snowfall 0.0  
Since 1 July snowfall 0.0  
Since 1 September snowfall 0.0  
Snow Depth -    
Sea Level Pressure  
Sea Level Pressure 30.16 in    
Wind  
Wind Speed 9 mph (WNW)    
Max Wind Speed 16 mph    
Max Gust Speed 23 mph    
Visibility 10 miles    
Events      
T = Trace of Precipitation, MM = Missing Value Source: NWS Daily Summary

Daily Weather History Graph

Daily Weather History Graph

Search for Another Location

Airport or City:

Trip Planner

Search our weather history database for the weather conditions in past years. The results will help you decide how hot, cold, wet, or windy it might be!

Date:

Astronomy

Oct. 06, 2012 Rise Set
Actual Time 6:59 AM CDT 6:28 PM CDT
Civil Twilight 6:31 AM CDT 6:56 PM CDT
Nautical Twilight 5:59 AM CDT 7:28 PM CDT
Astronomical Twilight 5:26 AM CDT 8:01 PM CDT
Moon 10:40 PM CDT (10/6) 12:57 PM CDT (10/6)
Length of Visible Light 12h 25m
Length of Day
11h 29m
Waning Gibbous, 65% of the Moon is Illuminated
Oct 6
Waning Gibbous
Oct 8
Last Quarter
Oct 15
New
Oct 21
First Quarter
Oct 29
Full

Hourly Weather History & Observations

Time (CDT) Temp. Windchill Dew Point Humidity Pressure Visibility Wind Dir Wind Speed Gust Speed Precip Events Conditions
12:15 AM 33.3 °F 25.7 °F 24.8 °F 71% 30.11 in 10.0 mi West 9.2 mph - N/A   Clear
12:35 AM 33.3 °F 25.7 °F 24.6 °F 71% 30.10 in 10.0 mi West 9.2 mph - N/A   Clear
12:55 AM 33.6 °F 26.2 °F 24.3 °F 69% 30.09 in 10.0 mi West 9.2 mph - N/A   Clear
1:15 AM 32.2 °F 25.8 °F 23.9 °F 72% 30.10 in 10.0 mi West 6.9 mph - N/A   Clear
1:55 AM 29.7 °F 23.7 °F 23.9 °F 79% 30.10 in 10.0 mi WSW 5.8 mph - N/A   Clear
2:15 AM 29.3 °F 22.3 °F 24.1 °F 81% 30.10 in 10.0 mi WSW 6.9 mph - N/A   Clear
2:35 AM 28.4 °F 22.2 °F 24.3 °F 84% 30.11 in 10.0 mi WSW 5.8 mph - N/A   Clear
2:55 AM 28.4 °F 22.2 °F 24.3 °F 84% 30.10 in 10.0 mi West 5.8 mph - N/A   Clear
3:15 AM 28.4 °F 22.2 °F 23.9 °F 83% 30.10 in 10.0 mi West 5.8 mph - N/A   Clear
3:35 AM 28.8 °F 22.6 °F 24.3 °F 83% 30.09 in 10.0 mi West 5.8 mph - N/A   Clear
3:55 AM 30.6 °F 23.1 °F 24.8 °F 79% 30.09 in 10.0 mi West 8.1 mph - N/A   Clear
4:15 AM 30.2 °F 22.6 °F 24.8 °F 80% 30.10 in 10.0 mi West 8.1 mph - N/A   Clear
4:35 AM 29.3 °F 22.3 °F 24.8 °F 83% 30.11 in 10.0 mi West 6.9 mph - N/A   Clear
4:55 AM 29.3 °F 21.5 °F 25.2 °F 85% 30.11 in 10.0 mi West 8.1 mph - N/A   Clear
5:15 AM 29.7 °F 21.3 °F 25.5 °F 85% 30.12 in 10.0 mi West 9.2 mph - N/A   Clear
5:35 AM 30.2 °F 21.9 °F 25.7 °F 83% 30.12 in 10.0 mi West 9.2 mph - N/A   Clear
5:55 AM 30.2 °F 22.6 °F 25.9 °F 84% 30.13 in 10.0 mi West 8.1 mph - N/A   Clear
6:15 AM 30.2 °F 23.4 °F 25.7 °F 83% 30.14 in 10.0 mi West 6.9 mph - N/A   Clear
6:55 AM 27.7 °F 21.3 °F 25.2 °F 90% 30.14 in 10.0 mi WSW 5.8 mph - N/A   Scattered Clouds
7:15 AM 28.0 °F 21.7 °F 25.2 °F 89% 30.14 in 10.0 mi WSW 5.8 mph - N/A   Scattered Clouds
7:35 AM 28.8 °F 22.6 °F 25.9 °F 89% 30.14 in 10.0 mi West 5.8 mph - N/A   Clear
7:55 AM 30.9 °F 25.2 °F 26.8 °F 85% 30.14 in 10.0 mi West 5.8 mph - N/A   Clear
8:15 AM 32.7 °F 25.0 °F 28.2 °F 83% 30.15 in 10.0 mi West 9.2 mph - N/A   Clear
8:35 AM 35.1 °F 26.9 °F 28.6 °F 77% 30.16 in 10.0 mi West 11.5 mph - N/A   Clear
8:55 AM 37.4 °F 28.9 °F 28.4 °F 70% 30.15 in 10.0 mi WNW 13.8 mph - N/A   Clear
9:15 AM 39.2 °F 31.2 °F 27.9 °F 64% 30.15 in 10.0 mi WNW 13.8 mph 19.6 mph N/A   Clear
9:35 AM 40.5 °F 33.2 °F 27.3 °F 59% 30.16 in 10.0 mi NW 12.7 mph 20.7 mph N/A   Clear
9:55 AM 41.7 °F 34.4 °F 27.3 °F 57% 30.16 in 10.0 mi WNW 13.8 mph - N/A   Clear
10:15 AM 43.3 °F 36.1 °F 27.5 °F 54% 30.16 in 10.0 mi WNW 15.0 mph 19.6 mph N/A   Clear
10:35 AM 44.1 °F 38.1 °F 27.1 °F 51% 30.16 in 10.0 mi WNW 11.5 mph 18.4 mph N/A   Clear
10:55 AM 44.1 °F 37.1 °F 27.0 °F 51% 30.16 in 10.0 mi NW 15.0 mph 18.4 mph N/A   Scattered Clouds
11:15 AM 45.7 °F 40.2 °F 27.0 °F 48% 30.17 in 10.0 mi NNW 11.5 mph - N/A   Scattered Clouds
11:35 AM 46.6 °F - 27.0 °F 46% 30.17 in 10.0 mi NW 11.5 mph 23.0 mph N/A   Scattered Clouds
11:55 AM 46.2 °F 39.8 °F 27.1 °F 47% 30.17 in 10.0 mi North 15.0 mph 20.7 mph N/A   Mostly Cloudy
12:15 PM 47.8 °F - 27.5 °F 45% 30.17 in 10.0 mi NNW 16.1 mph 19.6 mph N/A   Scattered Clouds
12:35 PM 46.2 °F 41.2 °F 27.3 °F 48% 30.17 in 10.0 mi NNW 10.4 mph 18.4 mph N/A   Mostly Cloudy
12:55 PM 47.5 °F - 27.0 °F 45% 30.16 in 10.0 mi NW 12.7 mph 20.7 mph N/A   Mostly Cloudy
1:15 PM 46.8 °F - 27.1 °F 46% 30.16 in 10.0 mi NNW 10.4 mph - N/A   Overcast
1:35 PM 46.6 °F - 27.5 °F 47% 30.16 in 10.0 mi NW 13.8 mph 23.0 mph N/A   Overcast
1:55 PM 46.0 °F 42.5 °F 27.0 °F 47% 30.16 in 10.0 mi NNW 6.9 mph 21.9 mph N/A   Overcast
2:15 PM 45.7 °F 40.6 °F 27.3 °F 49% 30.16 in 10.0 mi NW 10.4 mph 16.1 mph N/A   Overcast
2:35 PM 45.5 °F 40.8 °F 27.3 °F 49% 30.16 in 10.0 mi NW 9.2 mph - N/A   Overcast
2:55 PM 44.6 °F 39.2 °F 26.8 °F 50% 30.16 in 10.0 mi NW 10.4 mph - N/A   Overcast
3:15 PM 44.6 °F 39.2 °F 27.0 °F 50% 30.17 in 10.0 mi NW 10.4 mph 19.6 mph N/A   Overcast
3:35 PM 44.8 °F 38.3 °F 26.4 °F 49% 30.17 in 10.0 mi WNW 13.8 mph - N/A   Overcast
3:55 PM 44.6 °F 38.8 °F 26.4 °F 49% 30.17 in 10.0 mi WNW 11.5 mph - N/A   Overcast
4:15 PM 44.6 °F 39.7 °F 25.5 °F 47% 30.17 in 10.0 mi NW 9.2 mph - N/A   Overcast
4:35 PM 44.4 °F 38.6 °F 25.7 °F 48% 30.17 in 10.0 mi NW 11.5 mph - N/A   Overcast
4:55 PM 43.9 °F 38.3 °F 26.1 °F 50% 30.17 in 10.0 mi NW 10.4 mph - N/A   Overcast
5:15 PM 43.7 °F 38.6 °F 26.1 °F 50% 30.17 in 10.0 mi NW 9.2 mph - N/A   Overcast
5:35 PM 43.3 °F 37.7 °F 27.0 °F 52% 30.18 in 10.0 mi WNW 10.4 mph - N/A   Overcast
5:55 PM 43.2 °F 37.4 °F 26.8 °F 52% 30.18 in 10.0 mi NW 10.4 mph - N/A   Overcast
6:15 PM 43.0 °F 38.2 °F 26.8 °F 53% 30.19 in 10.0 mi NW 8.1 mph - N/A   Overcast
6:35 PM 42.8 °F 39.3 °F 27.1 °F 54% 30.18 in 10.0 mi NW 5.8 mph - N/A   Overcast
6:55 PM 42.6 °F 37.2 °F 27.1 °F 54% 30.19 in 10.0 mi NW 9.2 mph - N/A   Overcast
7:15 PM 42.1 °F 37.1 °F 27.9 °F 57% 30.19 in 10.0 mi WNW 8.1 mph - N/A   Overcast
7:35 PM 41.9 °F 39.0 °F 28.2 °F 58% 30.19 in 10.0 mi WNW 4.6 mph - N/A   Overcast
7:55 PM 41.5 °F 36.4 °F 28.2 °F 59% 30.19 in 10.0 mi WNW 8.1 mph - N/A   Overcast
8:15 PM 41.5 °F 36.4 °F 28.2 °F 59% 30.20 in 10.0 mi WNW 8.1 mph - N/A   Overcast
8:35 PM 41.2 °F 35.5 °F 28.2 °F 60% 30.20 in 10.0 mi WNW 9.2 mph - N/A   Overcast
8:55 PM 41.2 °F 36.0 °F 28.4 °F 60% 30.20 in 10.0 mi WNW 8.1 mph - N/A   Overcast
9:15 PM 41.0 °F 35.8 °F 28.4 °F 61% 30.20 in 10.0 mi WNW 8.1 mph - N/A   Overcast
9:35 PM 41.0 °F 36.4 °F 28.8 °F 62% 30.20 in 10.0 mi WNW 6.9 mph - N/A   Overcast
9:55 PM 41.0 °F 37.1 °F 28.9 °F 62% 30.20 in 10.0 mi WNW 5.8 mph - N/A   Overcast
10:15 PM 40.6 °F 36.0 °F 28.9 °F 63% 30.20 in 10.0 mi WNW 6.9 mph - N/A   Overcast
10:35 PM 40.5 °F 36.5 °F 29.3 °F 64% 30.20 in 10.0 mi West 5.8 mph - N/A   Overcast
10:55 PM 40.1 °F 36.1 °F 29.3 °F 65% 30.20 in 10.0 mi West 5.8 mph - N/A   Overcast
11:15 PM 40.1 °F 36.1 °F 29.3 °F 65% 30.20 in 10.0 mi WNW 5.8 mph - N/A   Overcast
11:35 PM 40.1 °F 36.1 °F 29.7 °F 66% 30.20 in 10.0 mi WNW 5.8 mph - N/A   Overcast
11:55 PM 40.1 °F 35.3 °F 28.9 °F 64% 30.20 in 10.0 mi WNW 6.9 mph - N/A   Overcast